Time,TemperatureF,DewpointF,PressureIn,WindDirection,WindDirectionDegrees,WindSpeedMPH,WindSpeedGustMPH,Humidity,HourlyPrecipIn,Conditions,Clouds,dailyrainin,SoftwareType,DateUTC
2013-03-01 00:01:00,31.1,28.5,29.98,NNW,348,4.7,12.3,90,0.00,,,0.00,VWS V14.01,2013-03-01 05:01:00,
2013-03-01 00:02:00,31.1,28.5,29.98,North,0,4.7,10.1,90,0.00,,,0.00,VWS V14.01,2013-03-01 05:02:00,
2013-03-01 00:07:00,30.9,28.3,29.98,North,353,5.4,10.1,90,0.00,,,0.00,VWS V14.01,2013-03-01 05:07:00,
2013-03-01 00:09:00,30.9,28.3,29.98,North,1,4.7,8.9,90,0.00,,,0.00,VWS V14.01,2013-03-01 05:09:00,
2013-03-01 00:10:00,30.9,28.3,29.98,North,353,4.7,7.8,90,0.00,,,0.00,VWS V14.01,2013-03-01 05:10:00,
2013-03-01 00:16:00,30.9,28.3,29.98,North,353,4.0,13.4,90,0.00,,,0.00,VWS V14.01,2013-03-01 05:16:00,
2013-03-01 00:22:00,30.9,28.3,29.98,North,3,4.7,7.8,90,0.00,,,0.00,VWS V14.01,2013-03-01 05:22:00,
2013-03-01 00:27:00,30.9,28.1,29.98,NNW,348,4.7,8.9,89,0.00,,,0.00,VWS V14.01,2013-03-01 05:27:00,
2013-03-01 00:33:00,30.9,28.1,29.98,North,0,4.7,8.9,89,0.00,,,0.00,VWS V14.01,2013-03-01 05:33:00,
2013-03-01 00:38:00,30.7,27.9,29.98,North,3,5.4,8.9,89,0.00,,,0.00,VWS V14.01,2013-03-01 05:38:00,
2013-03-01 00:43:00,30.7,27.9,29.98,North,1,6.0,12.3,89,0.00,,,0.00,VWS V14.01,2013-03-01 05:43:00,
2013-03-01 00:49:00,30.7,27.6,29.98,North,2,8.1,13.4,88,0.00,,,0.00,VWS V14.01,2013-03-01 05:49:00,
2013-03-01 00:54:00,30.7,27.1,29.98,North,353,6.0,13.4,86,0.00,,,0.00,VWS V14.01,2013-03-01 05:54:00,
2013-03-01 01:01:00,30.6,26.3,29.98,North,0,4.7,8.9,84,0.00,,,0.00,VWS V14.01,2013-03-01 06:01:00,
2013-03-01 01:06:00,30.6,26.0,29.98,North,8,6.7,14.5,83,0.00,,,0.00,VWS V14.01,2013-03-01 06:06:00,
2013-03-01 01:11:00,30.6,25.7,29.98,North,6,5.4,12.3,82,0.00,,,0.00,VWS V14.01,2013-03-01 06:11:00,
2013-03-01 01:17:00,30.4,25.3,29.98,North,9,7.4,15.7,81,0.00,,,0.00,VWS V14.01,2013-03-01 06:17:00,
2013-03-01 01:22:00,30.4,25.3,29.98,NE,36,9.4,15.7,81,0.00,,,0.00,VWS V14.01,2013-03-01 06:22:00,
2013-03-01 01:27:00,30.4,25.3,29.98,NNE,19,5.4,19.0,81,0.00,,,0.00,VWS V14.01,2013-03-01 06:27:00,
2013-03-01 01:33:00,30.2,25.4,29.98,North,6,6.0,13.4,82,0.00,,,0.00,VWS V14.01,2013-03-01 06:33:00,
2013-03-01 01:39:00,30.2,25.4,29.98,NNE,15,6.0,10.1,82,0.00,,,0.00,VWS V14.01,2013-03-01 06:39:00,
2013-03-01 01:44:00,30.2,25.1,29.98,North,6,4.7,8.9,81,0.00,,,0.00,VWS V14.01,2013-03-01 06:44:00,
2013-03-01 01:51:00,30.2,25.4,29.98,North,6,6.0,10.1,82,0.00,,,0.00,VWS V14.01,2013-03-01 06:51:00,
2013-03-01 01:57:00,30.2,25.4,29.98,NE,43,4.0,10.1,82,0.00,,,0.00,VWS V14.01,2013-03-01 06:57:00,
2013-03-01 02:03:00,30.2,25.7,29.98,NNE,24,3.4,10.1,83,0.00,,,0.00,VWS V14.01,2013-03-01 07:03:00,
2013-03-01 02:08:00,30.2,25.7,29.98,North,5,4.0,8.9,83,0.00,,,0.00,VWS V14.01,2013-03-01 07:08:00,
2013-03-01 02:13:00,30.2,26.0,29.98,North,3,4.0,10.1,84,0.00,,,0.00,VWS V14.01,2013-03-01 07:13:00,
2013-03-01 02:18:00,30.2,26.0,29.98,North,2,4.7,10.1,84,0.00,,,0.00,VWS V14.01,2013-03-01 07:18:00,
2013-03-01 02:24:00,30.0,25.5,29.98,North,357,4.0,10.1,83,0.00,,,0.00,VWS V14.01,2013-03-01 07:24:00,
2013-03-01 02:29:00,30.0,25.8,29.98,North,8,4.0,8.9,84,0.00,,,0.00,VWS V14.01,2013-03-01 07:29:00,
2013-03-01 02:35:00,30.0,25.8,29.98,North,5,4.7,8.9,84,0.00,,,0.00,VWS V14.01,2013-03-01 07:35:00,
2013-03-01 02:41:00,30.0,26.1,29.98,North,353,4.0,8.9,85,0.00,,,0.00,VWS V14.01,2013-03-01 07:41:00,
2013-03-01 02:46:00,30.0,26.1,29.98,North,357,4.7,7.8,85,0.00,,,0.00,VWS V14.01,2013-03-01 07:46:00,
2013-03-01 02:51:00,30.0,26.1,29.98,North,8,4.0,10.1,85,0.00,,,0.00,VWS V14.01,2013-03-01 07:51:00,
2013-03-01 02:57:00,29.8,25.6,29.98,NNE,13,4.7,10.1,84,0.00,,,0.00,VWS V14.01,2013-03-01 07:57:00,
2013-03-01 03:03:00,29.8,25.6,29.98,NE,35,6.0,13.4,84,0.00,,,0.00,VWS V14.01,2013-03-01 08:03:00,
2013-03-01 03:09:00,29.8,25.3,29.98,NNE,26,6.0,19.0,83,0.00,,,0.00,VWS V14.01,2013-03-01 08:09:00,
2013-03-01 03:14:00,29.7,24.3,29.98,NE,45,9.4,21.8,80,0.00,,,0.00,VWS V14.01,2013-03-01 08:14:00,
2013-03-01 03:21:00,29.7,23.4,29.98,NE,36,13.1,25.2,77,0.00,,,0.00,VWS V14.01,2013-03-01 08:21:00,
2013-03-01 03:26:00,29.5,22.5,29.98,NE,44,15.8,28.5,75,0.00,,,0.00,VWS V14.01,2013-03-01 08:26:00,
2013-03-01 03:32:00,29.5,22.5,29.98,NNE,29,8.1,24.0,75,0.00,,,0.00,VWS V14.01,2013-03-01 08:32:00,
2013-03-01 03:38:00,29.3,22.1,29.98,NE,36,12.4,28.5,74,0.00,,,0.00,VWS V14.01,2013-03-01 08:38:00,
2013-03-01 03:43:00,29.3,21.7,29.98,NE,36,13.1,25.2,73,0.00,,,0.00,VWS V14.01,2013-03-01 08:43:00,
2013-03-01 03:48:00,29.3,21.4,29.98,NNE,21,8.1,20.1,72,0.00,,,0.00,VWS V14.01,2013-03-01 08:48:00,
2013-03-01 03:53:00,29.3,21.4,29.98,NE,37,9.4,20.1,72,0.00,,,0.00,VWS V14.01,2013-03-01 08:53:00,
2013-03-01 03:59:00,29.1,20.9,29.98,NE,35,12.4,25.2,71,0.00,,,0.00,VWS V14.01,2013-03-01 08:59:00,
2013-03-01 04:05:00,29.1,20.9,29.98,NE,35,11.4,19.0,71,0.00,,,0.00,VWS V14.01,2013-03-01 09:05:00,
2013-03-01 04:11:00,29.1,20.9,29.98,NNE,32,10.1,20.7,71,0.00,,,0.00,VWS V14.01,2013-03-01 09:11:00,
2013-03-01 04:17:00,28.9,20.7,29.98,NE,45,11.4,21.8,71,0.00,,,0.00,VWS V14.01,2013-03-01 09:17:00,
2013-03-01 04:23:00,28.9,20.1,29.98,NNE,28,13.1,21.8,69,0.00,,,0.00,VWS V14.01,2013-03-01 09:23:00,
2013-03-01 04:28:00,28.9,20.4,29.98,NNE,27,12.1,20.7,70,0.00,,,0.00,VWS V14.01,2013-03-01 09:28:00,
2013-03-01 04:34:00,28.8,19.9,29.98,NE,50,12.1,20.7,69,0.00,,,0.00,VWS V14.01,2013-03-01 09:34:00,
2013-03-01 04:41:00,28.8,19.9,29.98,NNE,32,10.7,17.9,69,0.00,,,0.00,VWS V14.01,2013-03-01 09:41:00,
2013-03-01 04:46:00,28.8,20.2,29.98,NNE,31,8.7,19.0,70,0.00,,,0.00,VWS V14.01,2013-03-01 09:46:00,
2013-03-01 04:52:00,28.8,20.6,29.98,NNE,33,6.0,14.5,71,0.00,,,0.00,VWS V14.01,2013-03-01 09:52:00,
2013-03-01 04:58:00,28.6,20.7,30.01,NNE,25,8.7,14.5,72,0.00,,,0.00,VWS V14.01,2013-03-01 09:58:00,
2013-03-01 05:03:00,28.8,20.2,30.01,NNE,27,11.4,19.0,70,0.00,,,0.00,VWS V14.01,2013-03-01 10:03:00,
2013-03-01 05:09:00,28.6,20.0,30.01,NE,48,6.0,15.7,70,0.00,,,0.00,VWS V14.01,2013-03-01 10:09:00,
2013-03-01 05:14:00,28.6,20.4,30.01,NNE,29,9.4,15.7,71,0.00,,,0.00,VWS V14.01,2013-03-01 10:14:00,
2013-03-01 05:21:00,28.6,20.4,30.01,NNE,30,6.0,15.7,71,0.00,,,0.00,VWS V14.01,2013-03-01 10:21:00,
2013-03-01 05:26:00,28.6,19.7,30.01,NNE,32,9.4,21.8,69,0.00,,,0.00,VWS V14.01,2013-03-01 10:26:00,
2013-03-01 05:31:00,28.6,19.4,30.01,NNE,28,9.4,15.7,68,0.00,,,0.00,VWS V14.01,2013-03-01 10:31:00,
2013-03-01 05:36:00,28.6,19.4,30.01,NNE,31,9.4,20.1,68,0.00,,,0.00,VWS V14.01,2013-03-01 10:36:00,
2013-03-01 05:42:00,28.6,20.0,30.01,NNE,29,6.0,15.7,70,0.00,,,0.00,VWS V14.01,2013-03-01 10:42:00,
2013-03-01 05:48:00,28.6,19.7,30.01,ENE,58,6.0,20.1,69,0.00,,,0.00,VWS V14.01,2013-03-01 10:48:00,
2013-03-01 05:53:00,28.6,19.4,30.01,NE,37,7.4,20.7,68,0.00,,,0.00,VWS V14.01,2013-03-01 10:53:00,
2013-03-01 05:58:00,28.6,19.7,30.01,NE,34,7.4,14.5,69,0.00,,,0.00,VWS V14.01,2013-03-01 10:58:00,
2013-03-01 06:04:00,28.6,20.0,30.01,NE,39,4.0,12.3,70,0.00,,,0.00,VWS V14.01,2013-03-01 11:04:00,
2013-03-01 06:09:00,28.6,20.4,30.01,NE,49,6.0,13.4,71,0.00,,,0.00,VWS V14.01,2013-03-01 11:09:00,
2013-03-01 06:15:00,28.4,20.2,30.01,NNE,26,5.4,13.4,71,0.00,,,0.00,VWS V14.01,2013-03-01 11:15:00,
2013-03-01 06:21:00,28.4,20.5,30.01,NNE,28,4.0,8.9,72,0.00,,,0.00,VWS V14.01,2013-03-01 11:21:00,
2013-03-01 06:26:00,28.4,20.9,30.01,NNE,30,7.4,14.5,73,0.00,,,0.00,VWS V14.01,2013-03-01 11:26:00,
2013-03-01 06:31:00,28.4,20.9,30.01,NNE,29,5.4,13.4,73,0.00,,,0.00,VWS V14.01,2013-03-01 11:31:00,
2013-03-01 06:37:00,28.4,21.2,30.01,NNE,29,5.4,14.5,74,0.00,,,0.00,VWS V14.01,2013-03-01 11:37:00,
2013-03-01 06:43:00,28.4,21.2,30.01,NNE,23,4.7,12.3,74,0.00,,,0.00,VWS V14.01,2013-03-01 11:43:00,
2013-03-01 06:48:00,28.4,20.9,30.01,NE,39,8.1,20.7,73,0.00,,,0.00,VWS V14.01,2013-03-01 11:48:00,
2013-03-01 06:54:00,28.4,20.9,30.01,NNE,31,8.7,14.5,73,0.00,,,0.00,VWS V14.01,2013-03-01 11:54:00,
2013-03-01 07:00:00,28.2,20.4,30.01,NNE,30,12.1,21.8,72,0.00,,,0.00,VWS V14.01,2013-03-01 12:00:00,
2013-03-01 07:06:00,28.2,19.7,30.01,NNE,24,8.1,13.4,70,0.00,,,0.00,VWS V14.01,2013-03-01 12:06:00,
2013-03-01 07:12:00,28.2,20.0,30.04,NNE,31,8.7,14.5,71,0.00,,,0.00,VWS V14.01,2013-03-01 12:12:00,
2013-03-01 07:17:00,28.2,20.0,30.04,NNE,33,8.1,15.7,71,0.00,,,0.00,VWS V14.01,2013-03-01 12:17:00,
2013-03-01 07:22:00,28.2,19.7,30.04,NE,36,6.0,16.8,70,0.00,,,0.00,VWS V14.01,2013-03-01 12:22:00,
2013-03-01 07:28:00,28.0,19.2,30.04,NE,38,7.4,13.4,69,0.00,,,0.00,VWS V14.01,2013-03-01 12:28:00,
2013-03-01 07:33:00,28.0,18.5,30.04,NE,38,9.4,15.7,67,0.00,,,0.00,VWS V14.01,2013-03-01 12:33:00,
2013-03-01 07:39:00,28.2,18.7,30.04,NE,38,8.1,14.5,67,0.00,,,0.00,VWS V14.01,2013-03-01 12:39:00,
2013-03-01 07:44:00,28.2,19.0,30.04,NE,40,7.4,12.3,68,0.00,,,0.00,VWS V14.01,2013-03-01 12:44:00,
2013-03-01 07:49:00,28.2,19.4,30.04,NNE,30,4.7,10.1,69,0.00,,,0.00,VWS V14.01,2013-03-01 12:49:00,
2013-03-01 07:54:00,28.4,19.2,30.04,NNE,29,7.4,13.4,68,0.00,,,0.00,VWS V14.01,2013-03-01 12:54:00,
2013-03-01 08:01:00,28.4,19.5,30.04,NE,37,4.0,12.3,69,0.00,,,0.00,VWS V14.01,2013-03-01 13:01:00,
2013-03-01 08:06:00,28.6,19.7,30.04,North,2,4.7,7.8,69,0.00,,,0.00,VWS V14.01,2013-03-01 13:06:00,
2013-03-01 08:11:00,28.6,20.0,30.04,NNE,19,0.0,0.0,70,0.00,,,0.00,VWS V14.01,2013-03-01 13:11:00,
2013-03-01 08:16:00,28.6,19.7,30.04,NNE,20,9.4,16.8,69,0.00,,,0.00,VWS V14.01,2013-03-01 13:16:00,
2013-03-01 08:21:00,28.8,18.9,30.04,NE,34,8.1,19.0,66,0.00,,,0.00,VWS V14.01,2013-03-01 13:21:00,
2013-03-01 08:27:00,28.9,19.0,30.07,NE,41,10.7,20.7,66,0.00,,,0.00,VWS V14.01,2013-03-01 13:27:00,
2013-03-01 08:33:00,29.1,19.2,30.07,North,8,4.0,13.4,66,0.00,,,0.00,VWS V14.01,2013-03-01 13:33:00,
2013-03-01 08:39:00,29.3,19.0,30.07,NNE,28,9.4,16.8,65,0.00,,,0.00,VWS V14.01,2013-03-01 13:39:00,
2013-03-01 08:44:00,29.3,19.0,30.07,NNE,18,8.1,21.8,65,0.00,,,0.00,VWS V14.01,2013-03-01 13:44:00,
2013-03-01 08:49:00,29.5,18.8,30.07,NNE,29,8.1,13.4,64,0.00,,,0.00,VWS V14.01,2013-03-01 13:49:00,
2013-03-01 08:54:00,29.7,18.6,30.07,NNE,26,6.7,13.4,63,0.00,,,0.00,VWS V14.01,2013-03-01 13:54:00,
2013-03-01 08:59:00,29.7,18.6,30.07,NNE,25,5.4,15.7,63,0.00,,,0.00,VWS V14.01,2013-03-01 13:59:00,
2013-03-01 09:04:00,29.8,18.8,30.07,NNE,31,9.4,15.7,63,0.00,,,0.00,VWS V14.01,2013-03-01 14:04:00,
2013-03-01 09:09:00,30.2,18.8,30.07,NNE,31,10.7,17.9,62,0.00,,,0.00,VWS V14.01,2013-03-01 14:09:00,
2013-03-01 09:15:00,30.4,18.6,30.07,NNE,28,8.7,15.7,61,0.00,,,0.00,VWS V14.01,2013-03-01 14:15:00,
2013-03-01 09:21:00,30.4,18.2,30.07,NE,34,9.4,20.7,60,0.00,,,0.00,VWS V14.01,2013-03-01 14:21:00,
2013-03-01 09:27:00,30.6,18.0,30.07,NE,34,15.8,26.3,59,0.00,,,0.00,VWS V14.01,2013-03-01 14:27:00,
2013-03-01 09:32:00,30.6,17.6,30.07,NNE,28,12.1,24.0,58,0.00,,,0.00,VWS V14.01,2013-03-01 14:32:00,
2013-03-01 09:38:00,30.9,18.3,30.07,NNE,28,8.7,20.1,59,0.00,,,0.00,VWS V14.01,2013-03-01 14:38:00,
2013-03-01 09:43:00,31.1,18.5,30.07,NNE,30,12.4,20.7,59,0.00,,,0.00,VWS V14.01,2013-03-01 14:43:00,
2013-03-01 09:48:00,31.6,19.0,30.07,NNE,31,13.1,21.8,59,0.00,,,0.00,VWS V14.01,2013-03-01 14:48:00,
2013-03-01 09:53:00,31.8,19.1,30.07,NNE,19,8.1,15.7,59,0.00,,,0.00,VWS V14.01,2013-03-01 14:53:00,
2013-03-01 09:59:00,32.4,20.0,30.07,NE,36,9.4,15.7,60,0.00,,,0.00,VWS V14.01,2013-03-01 14:59:00,
2013-03-01 10:04:00,32.0,18.5,30.07,NE,36,12.4,20.7,57,0.00,,,0.00,VWS V14.01,2013-03-01 15:04:00,
2013-03-01 10:09:00,31.8,17.9,30.07,NE,38,13.1,21.8,56,0.00,,,0.00,VWS V14.01,2013-03-01 15:09:00,
2013-03-01 10:14:00,32.2,18.3,30.07,North,11,8.1,20.1,56,0.00,,,0.00,VWS V14.01,2013-03-01 15:14:00,
2013-03-01 10:20:00,32.5,19.0,30.07,NE,42,9.4,16.8,57,0.00,,,0.00,VWS V14.01,2013-03-01 15:20:00,
2013-03-01 10:26:00,32.7,18.8,30.07,NNE,32,12.4,20.7,56,0.00,,,0.00,VWS V14.01,2013-03-01 15:26:00,
2013-03-01 10:31:00,32.7,18.4,30.07,NE,37,11.4,20.1,55,0.00,,,0.00,VWS V14.01,2013-03-01 15:31:00,
2013-03-01 10:37:00,32.9,18.5,30.07,NNE,27,6.0,19.0,55,0.00,,,0.00,VWS V14.01,2013-03-01 15:37:00,
2013-03-01 10:43:00,33.1,18.7,30.07,NNE,28,8.7,15.7,55,0.00,,,0.00,VWS V14.01,2013-03-01 15:43:00,
2013-03-01 10:48:00,33.3,18.9,30.07,NE,44,4.7,19.0,55,0.00,,,0.00,VWS V14.01,2013-03-01 15:48:00,
2013-03-01 10:53:00,34.0,19.5,30.07,North,3,5.4,10.1,55,0.00,,,0.00,VWS V14.01,2013-03-01 15:53:00,
2013-03-01 10:58:00,34.5,20.0,30.07,NNE,18,3.4,6.7,55,0.00,,,0.00,VWS V14.01,2013-03-01 15:58:00,
2013-03-01 11:04:00,34.3,19.0,30.07,NNE,22,12.1,20.1,53,0.00,,,0.00,VWS V14.01,2013-03-01 16:04:00,
2013-03-01 11:10:00,34.3,19.0,30.07,NNE,27,8.7,20.1,53,0.00,,,0.00,VWS V14.01,2013-03-01 16:10:00,
2013-03-01 11:16:00,34.9,19.1,30.07,North,9,4.0,14.5,52,0.00,,,0.00,VWS V14.01,2013-03-01 16:16:00,
2013-03-01 11:22:00,35.1,19.7,30.07,NNE,30,8.7,14.5,53,0.00,,,0.00,VWS V14.01,2013-03-01 16:22:00,
2013-03-01 11:28:00,35.1,19.2,30.10,NNE,27,9.4,17.9,52,0.00,,,0.00,VWS V14.01,2013-03-01 16:28:00,
2013-03-01 11:34:00,35.8,19.0,30.10,NNE,33,11.4,20.1,50,0.00,,,0.00,VWS V14.01,2013-03-01 16:34:00,
2013-03-01 11:39:00,36.0,19.1,30.10,NNE,18,7.4,21.8,50,0.00,,,0.00,VWS V14.01,2013-03-01 16:39:00,
2013-03-01 11:46:00,35.8,19.4,30.10,NE,35,8.1,15.7,51,0.00,,,0.00,VWS V14.01,2013-03-01 16:46:00,
2013-03-01 11:52:00,36.7,19.8,30.10,NNE,28,5.4,15.7,50,0.00,,,0.00,VWS V14.01,2013-03-01 16:52:00,
2013-03-01 11:58:00,36.5,20.1,30.07,North,2,5.4,15.7,51,0.00,,,0.00,VWS V14.01,2013-03-01 16:58:00,
2013-03-01 12:03:00,36.5,20.6,30.07,North,0,4.7,13.4,52,0.00,,,0.00,VWS V14.01,2013-03-01 17:03:00,
2013-03-01 12:09:00,36.1,19.8,30.07,North,353,6.0,14.5,51,0.00,,,0.00,VWS V14.01,2013-03-01 17:09:00,
2013-03-01 12:14:00,35.4,18.6,30.10,NE,39,11.4,19.0,50,0.00,,,0.00,VWS V14.01,2013-03-01 17:14:00,
2013-03-01 12:19:00,35.1,18.8,30.10,North,4,5.4,8.9,51,0.00,,,0.00,VWS V14.01,2013-03-01 17:19:00,
2013-03-01 12:24:00,35.1,18.8,30.10,North,0,5.4,15.7,51,0.00,,,0.00,VWS V14.01,2013-03-01 17:24:00,
2013-03-01 12:29:00,35.2,18.9,30.07,NNE,33,8.1,13.4,51,0.00,,,0.00,VWS V14.01,2013-03-01 17:29:00,
2013-03-01 12:34:00,35.2,18.5,30.07,North,1,3.4,10.1,50,0.00,,,0.00,VWS V14.01,2013-03-01 17:34:00,
2013-03-01 12:39:00,36.9,20.9,30.07,North,0,8.7,15.7,52,0.00,,,0.00,VWS V14.01,2013-03-01 17:39:00,
2013-03-01 12:44:00,35.4,18.2,30.07,NNE,28,6.0,10.1,49,0.00,,,0.00,VWS V14.01,2013-03-01 17:44:00,
2013-03-01 12:49:00,35.8,18.0,30.07,North,9,8.1,13.4,48,0.00,,,0.00,VWS V14.01,2013-03-01 17:49:00,
2013-03-01 12:54:00,34.9,18.1,30.07,North,5,9.4,15.7,50,0.00,,,0.00,VWS V14.01,2013-03-01 17:54:00,
2013-03-01 12:59:00,34.9,18.1,30.07,North,0,8.1,13.4,50,0.00,,,0.00,VWS V14.01,2013-03-01 17:59:00,
2013-03-01 13:06:00,35.8,18.5,30.07,NNE,15,8.1,13.4,49,0.00,,,0.00,VWS V14.01,2013-03-01 18:06:00,
2013-03-01 13:11:00,35.6,17.9,30.07,NNE,18,8.7,14.5,48,0.00,,,0.00,VWS V14.01,2013-03-01 18:11:00,
2013-03-01 13:16:00,35.6,17.4,30.07,North,357,6.0,33.0,47,0.00,,,0.00,VWS V14.01,2013-03-01 18:16:00,
2013-03-01 13:21:00,35.6,17.4,30.07,NE,35,4.7,19.0,47,0.00,,,0.00,VWS V14.01,2013-03-01 18:21:00,
2013-03-01 13:27:00,35.8,18.0,30.07,North,3,7.4,12.3,48,0.00,,,0.00,VWS V14.01,2013-03-01 18:27:00,
2013-03-01 13:33:00,35.8,18.0,30.07,NNE,25,15.8,26.3,48,0.00,,,0.00,VWS V14.01,2013-03-01 18:33:00,
2013-03-01 13:38:00,35.8,18.0,30.07,North,2,8.7,15.7,48,0.00,,,0.00,VWS V14.01,2013-03-01 18:38:00,
2013-03-01 13:44:00,36.3,18.5,30.07,NNW,334,8.1,15.7,48,0.00,,,0.00,VWS V14.01,2013-03-01 18:44:00,
2013-03-01 13:51:00,35.4,17.2,30.07,North,1,8.7,25.2,47,0.00,,,0.00,VWS V14.01,2013-03-01 18:51:00,
2013-03-01 13:57:00,35.4,17.2,30.07,North,9,7.4,20.1,47,0.00,,,0.00,VWS V14.01,2013-03-01 18:57:00,
2013-03-01 14:02:00,36.0,17.7,30.07,NNE,32,8.1,14.5,47,0.00,,,0.00,VWS V14.01,2013-03-01 19:02:00,
2013-03-01 14:08:00,36.0,17.7,30.07,NE,38,6.0,20.1,47,0.00,,,0.00,VWS V14.01,2013-03-01 19:08:00,
2013-03-01 14:14:00,36.3,18.0,30.07,North,8,8.7,14.5,47,0.00,,,0.00,VWS V14.01,2013-03-01 19:14:00,
2013-03-01 14:19:00,35.8,17.0,30.07,North,11,8.1,20.1,46,0.00,,,0.00,VWS V14.01,2013-03-01 19:19:00,
2013-03-01 14:26:00,36.1,17.4,30.04,NNE,20,7.4,15.7,46,0.00,,,0.00,VWS V14.01,2013-03-01 19:26:00,
2013-03-01 14:31:00,36.1,17.4,30.04,North,7,8.7,20.1,46,0.00,,,0.00,VWS V14.01,2013-03-01 19:31:00,
2013-03-01 14:36:00,35.1,15.9,30.04,NNE,15,6.0,24.0,45,0.00,,,0.00,VWS V14.01,2013-03-01 19:36:00,
2013-03-01 14:41:00,35.4,17.2,30.07,NE,38,10.7,17.9,47,0.00,,,0.00,VWS V14.01,2013-03-01 19:41:00,
2013-03-01 14:47:00,35.6,16.9,30.07,North,5,8.7,14.5,46,0.00,,,0.00,VWS V14.01,2013-03-01 19:47:00,
2013-03-01 14:52:00,34.9,16.7,30.07,North,4,5.4,14.5,47,0.00,,,0.00,VWS V14.01,2013-03-01 19:52:00,
2013-03-01 14:57:00,35.1,17.4,30.04,NNE,25,7.4,20.1,48,0.00,,,0.00,VWS V14.01,2013-03-01 19:57:00,
2013-03-01 15:02:00,35.1,17.8,30.04,North,2,7.4,15.7,49,0.00,,,0.00,VWS V14.01,2013-03-01 20:02:00,
2013-03-01 15:08:00,35.4,18.6,30.04,NE,41,8.1,15.7,50,0.00,,,0.00,VWS V14.01,2013-03-01 20:08:00,
2013-03-01 15:13:00,35.1,16.9,30.07,NNE,14,4.7,20.7,47,0.00,,,0.00,VWS V14.01,2013-03-01 20:13:00,
2013-03-01 15:18:00,34.0,15.4,30.07,NE,43,9.4,20.7,46,0.00,,,0.00,VWS V14.01,2013-03-01 20:18:00,
2013-03-01 15:24:00,32.9,15.4,30.07,NNE,32,9.4,19.0,48,0.00,,,0.00,VWS V14.01,2013-03-01 20:24:00,
2013-03-01 15:29:00,33.6,16.5,30.07,North,0,5.4,15.7,49,0.00,,,0.00,VWS V14.01,2013-03-01 20:29:00,
2013-03-01 15:36:00,34.0,16.4,30.07,ENE,66,6.0,15.7,48,0.00,,,0.00,VWS V14.01,2013-03-01 20:36:00,
2013-03-01 15:42:00,33.4,15.9,30.04,NNE,30,9.4,15.7,48,0.00,,,0.00,VWS V14.01,2013-03-01 20:42:00,
2013-03-01 15:47:00,33.1,15.1,30.04,East,79,9.4,25.2,47,0.00,,,0.00,VWS V14.01,2013-03-01 20:47:00,
2013-03-01 15:53:00,32.5,14.6,30.04,NNE,19,9.4,21.8,47,0.00,,,0.00,VWS V14.01,2013-03-01 20:53:00,
2013-03-01 15:58:00,31.8,14.4,30.07,ENE,71,12.1,20.1,48,0.00,,,0.00,VWS V14.01,2013-03-01 20:58:00,
2013-03-01 16:04:00,31.8,14.9,30.07,NE,36,11.4,20.7,49,0.00,,,0.00,VWS V14.01,2013-03-01 21:04:00,
2013-03-01 16:09:00,31.5,13.6,30.07,NNE,31,9.4,19.0,47,0.00,,,0.00,VWS V14.01,2013-03-01 21:09:00,
2013-03-01 16:15:00,31.1,15.1,30.07,North,6,6.7,12.3,51,0.00,,,0.00,VWS V14.01,2013-03-01 21:15:00,
2013-03-01 16:21:00,31.3,15.3,30.07,North,7,6.0,10.1,51,0.00,,,0.00,VWS V14.01,2013-03-01 21:21:00,
2013-03-01 16:27:00,31.6,16.0,30.07,North,9,4.7,8.9,52,0.00,,,0.00,VWS V14.01,2013-03-01 21:27:00,
2013-03-01 16:33:00,31.8,15.8,30.07,North,0,4.0,12.3,51,0.00,,,0.00,VWS V14.01,2013-03-01 21:33:00,
2013-03-01 16:39:00,31.8,15.8,30.07,North,357,3.4,15.7,51,0.00,,,0.00,VWS V14.01,2013-03-01 21:39:00,
2013-03-01 16:45:00,31.3,15.3,30.07,NNE,32,11.4,19.0,51,0.00,,,0.00,VWS V14.01,2013-03-01 21:45:00,
2013-03-01 16:51:00,31.3,15.3,30.07,NE,36,8.1,15.7,51,0.00,,,0.00,VWS V14.01,2013-03-01 21:51:00,
2013-03-01 16:57:00,31.5,15.9,30.07,North,4,5.4,12.3,52,0.00,,,0.00,VWS V14.01,2013-03-01 21:57:00,
2013-03-01 17:03:00,31.1,16.0,30.07,North,0,4.0,6.7,53,0.00,,,0.00,VWS V14.01,2013-03-01 22:03:00,
2013-03-01 17:09:00,31.5,16.8,30.07,North,5,4.0,7.8,54,0.00,,,0.00,VWS V14.01,2013-03-01 22:09:00,
2013-03-01 17:14:00,31.3,16.1,30.07,North,7,3.4,8.9,53,0.00,,,0.00,VWS V14.01,2013-03-01 22:14:00,
2013-03-01 17:20:00,31.5,16.3,30.07,North,8,4.0,8.9,53,0.00,,,0.00,VWS V14.01,2013-03-01 22:20:00,
2013-03-01 17:26:00,31.6,16.5,30.07,NNE,19,4.7,14.5,53,0.00,,,0.00,VWS V14.01,2013-03-01 22:26:00,
2013-03-01 17:31:00,31.5,15.9,30.07,North,0,4.0,8.9,52,0.00,,,0.00,VWS V14.01,2013-03-01 22:31:00,
2013-03-01 17:36:00,31.5,16.8,30.07,North,2,4.0,8.9,54,0.00,,,0.00,VWS V14.01,2013-03-01 22:36:00,
2013-03-01 17:41:00,31.3,16.1,30.07,North,5,6.0,12.3,53,0.00,,,0.00,VWS V14.01,2013-03-01 22:41:00,
2013-03-01 17:47:00,31.1,16.4,30.07,North,357,4.7,12.3,54,0.00,,,0.00,VWS V14.01,2013-03-01 22:47:00,
2013-03-01 17:52:00,31.1,16.8,30.07,North,357,5.4,13.4,55,0.00,,,0.00,VWS V14.01,2013-03-01 22:52:00,
2013-03-01 17:57:00,30.9,17.1,30.07,North,7,5.4,10.1,56,0.00,,,0.00,VWS V14.01,2013-03-01 22:57:00,
2013-03-01 18:03:00,30.6,17.1,30.07,North,353,4.7,10.1,57,0.00,,,0.00,VWS V14.01,2013-03-01 23:03:00,
2013-03-01 18:08:00,30.0,15.8,30.07,North,10,7.4,12.3,55,0.00,,,0.00,VWS V14.01,2013-03-01 23:08:00,
2013-03-01 18:14:00,29.5,14.9,30.10,North,9,6.0,10.1,54,0.00,,,0.00,VWS V14.01,2013-03-01 23:14:00,
2013-03-01 18:21:00,29.1,14.6,30.10,NNE,32,8.7,19.0,54,0.00,,,0.00,VWS V14.01,2013-03-01 23:21:00,
2013-03-01 18:26:00,28.6,14.1,30.10,NNE,26,8.7,15.7,54,0.00,,,0.00,VWS V14.01,2013-03-01 23:26:00,
2013-03-01 18:31:00,28.4,13.5,30.10,North,357,6.0,10.1,53,0.00,,,0.00,VWS V14.01,2013-03-01 23:31:00,
2013-03-01 18:37:00,28.0,13.6,30.10,NNE,23,4.7,12.3,54,0.00,,,0.00,VWS V14.01,2013-03-01 23:37:00,
2013-03-01 18:42:00,27.9,13.8,30.10,North,10,4.0,16.8,55,0.00,,,0.00,VWS V14.01,2013-03-01 23:42:00,
2013-03-01 18:47:00,27.9,13.8,30.10,NNE,14,4.7,13.4,55,0.00,,,0.00,VWS V14.01,2013-03-01 23:47:00,
2013-03-01 18:52:00,27.7,13.6,30.10,ENE,57,8.1,13.4,55,0.00,,,0.00,VWS V14.01,2013-03-01 23:52:00,
2013-03-01 18:58:00,27.3,13.7,30.10,North,8,6.0,13.4,56,0.00,,,0.00,VWS V14.01,2013-03-01 23:58:00,
2013-03-01 19:03:00,27.1,13.5,30.10,North,9,6.7,11.2,56,0.00,,,0.00,VWS V14.01,2013-03-02 00:03:00,
2013-03-01 19:08:00,27.0,13.4,30.10,North,2,6.0,10.1,56,0.00,,,0.00,VWS V14.01,2013-03-02 00:08:00,
2013-03-01 19:13:00,27.0,13.0,30.10,NNE,18,7.4,12.3,55,0.00,,,0.00,VWS V14.01,2013-03-02 00:13:00,
2013-03-01 19:19:00,26.8,13.2,30.10,North,353,6.0,13.4,56,0.00,,,0.00,VWS V14.01,2013-03-02 00:19:00,
2013-03-01 19:26:00,26.6,13.4,30.10,North,357,8.1,13.4,57,0.00,,,0.00,VWS V14.01,2013-03-02 00:26:00,
2013-03-01 19:31:00,26.6,13.4,30.10,NE,44,6.0,15.7,57,0.00,,,0.00,VWS V14.01,2013-03-02 00:31:00,
2013-03-01 19:36:00,26.4,13.3,30.10,North,9,8.1,15.7,57,0.00,,,0.00,VWS V14.01,2013-03-02 00:36:00,
2013-03-01 19:41:00,26.4,13.3,30.13,North,7,8.7,14.5,57,0.00,,,0.00,VWS V14.01,2013-03-02 00:41:00,
2013-03-01 19:46:00,26.4,13.7,30.13,North,2,7.4,12.3,58,0.00,,,0.00,VWS V14.01,2013-03-02 00:46:00,
2013-03-01 19:51:00,26.4,14.1,30.13,North,2,4.7,12.3,59,0.00,,,0.00,VWS V14.01,2013-03-02 00:51:00,
2013-03-01 19:57:00,26.6,15.0,30.13,North,357,4.7,12.3,61,0.00,,,0.00,VWS V14.01,2013-03-02 00:57:00,
2013-03-01 20:02:00,26.6,15.4,30.13,North,353,6.0,10.1,62,0.00,,,0.00,VWS V14.01,2013-03-02 01:02:00,
2013-03-01 20:08:00,26.6,15.7,30.13,North,0,4.0,7.8,63,0.00,,,0.00,VWS V14.01,2013-03-02 01:08:00,
2013-03-01 20:14:00,26.6,16.1,30.13,North,11,6.0,10.1,64,0.00,,,0.00,VWS V14.01,2013-03-02 01:14:00,
2013-03-01 20:20:00,26.2,14.6,30.13,North,6,6.0,13.4,61,0.00,,,0.00,VWS V14.01,2013-03-02 01:20:00,
2013-03-01 20:25:00,26.1,14.5,30.13,NNE,31,9.4,16.8,61,0.00,,,0.00,VWS V14.01,2013-03-02 01:25:00,
2013-03-01 20:31:00,25.9,13.5,30.13,NE,42,8.1,15.7,59,0.00,,,0.00,VWS V14.01,2013-03-02 01:31:00,
2013-03-01 20:36:00,25.9,13.9,30.13,NNE,32,5.4,12.3,60,0.00,,,0.00,VWS V14.01,2013-03-02 01:36:00,
2013-03-01 20:42:00,25.7,13.4,30.13,NNE,32,8.1,15.7,59,0.00,,,0.00,VWS V14.01,2013-03-02 01:42:00,
2013-03-01 20:47:00,25.7,13.4,30.13,NNE,32,8.7,15.7,59,0.00,,,0.00,VWS V14.01,2013-03-02 01:47:00,
2013-03-01 20:53:00,25.5,14.0,30.13,NE,34,3.4,6.7,61,0.00,,,0.00,VWS V14.01,2013-03-02 01:53:00,
2013-03-01 20:58:00,25.3,14.2,30.13,NE,35,4.0,7.8,62,0.00,,,0.00,VWS V14.01,2013-03-02 01:58:00,
2013-03-01 21:04:00,25.3,13.8,30.13,ENE,58,5.4,10.1,61,0.00,,,0.00,VWS V14.01,2013-03-02 02:04:00,
2013-03-01 21:11:00,25.3,14.5,30.13,NE,37,0.0,0.0,63,0.00,,,0.00,VWS V14.01,2013-03-02 02:11:00,
2013-03-01 21:16:00,25.3,14.9,30.13,NE,36,0.0,0.0,64,0.00,,,0.00,VWS V14.01,2013-03-02 02:16:00,
2013-03-01 21:21:00,25.5,15.4,30.13,NE,36,0.0,0.0,65,0.00,,,0.00,VWS V14.01,2013-03-02 02:21:00,
2013-03-01 21:27:00,25.5,15.8,30.13,NE,36,0.0,0.0,66,0.00,,,0.00,VWS V14.01,2013-03-02 02:27:00,
2013-03-01 21:33:00,25.5,16.1,30.13,NE,37,0.0,0.0,67,0.00,,,0.00,VWS V14.01,2013-03-02 02:33:00,
2013-03-01 21:38:00,25.3,15.9,30.13,NE,37,0.0,0.0,67,0.00,,,0.00,VWS V14.01,2013-03-02 02:38:00,
2013-03-01 21:43:00,25.3,15.9,30.13,NE,37,0.0,0.0,67,0.00,,,0.00,VWS V14.01,2013-03-02 02:43:00,
2013-03-01 21:48:00,25.3,15.9,30.13,NE,37,0.0,0.0,67,0.00,,,0.00,VWS V14.01,2013-03-02 02:48:00,
2013-03-01 21:54:00,25.3,16.3,30.13,NE,37,0.0,0.0,68,0.00,,,0.00,VWS V14.01,2013-03-02 02:54:00,
2013-03-01 21:59:00,25.3,16.3,30.13,NE,37,0.0,0.0,68,0.00,,,0.00,VWS V14.01,2013-03-02 02:59:00,
2013-03-01 22:04:00,25.5,16.8,30.13,NE,37,0.0,0.0,69,0.00,,,0.00,VWS V14.01,2013-03-02 03:04:00,
2013-03-01 22:11:00,25.5,17.1,30.13,NE,37,0.0,0.0,70,0.00,,,0.00,VWS V14.01,2013-03-02 03:11:00,
2013-03-01 22:17:00,25.5,17.1,30.13,NE,37,0.0,0.0,70,0.00,,,0.00,VWS V14.01,2013-03-02 03:17:00,
2013-03-01 22:22:00,25.5,17.1,30.13,NE,37,0.0,0.0,70,0.00,,,0.00,VWS V14.01,2013-03-02 03:22:00,
2013-03-01 22:28:00,25.5,17.4,30.13,NE,36,0.0,0.0,71,0.00,,,0.00,VWS V14.01,2013-03-02 03:28:00,
2013-03-01 22:33:00,25.7,17.6,30.13,NE,37,0.0,0.0,71,0.00,,,0.00,VWS V14.01,2013-03-02 03:33:00,
2013-03-01 22:39:00,25.7,17.9,30.13,NE,37,0.0,0.0,72,0.00,,,0.00,VWS V14.01,2013-03-02 03:39:00,
2013-03-01 22:45:00,25.5,17.8,30.13,NE,37,0.0,0.0,72,0.00,,,0.00,VWS V14.01,2013-03-02 03:45:00,
2013-03-01 22:51:00,25.7,17.9,30.13,NE,37,0.0,0.0,72,0.00,,,0.00,VWS V14.01,2013-03-02 03:51:00,
2013-03-01 22:57:00,25.7,17.9,30.13,NE,37,0.0,0.0,72,0.00,,,0.00,VWS V14.01,2013-03-02 03:57:00,
2013-03-01 23:03:00,25.7,18.3,30.13,NE,37,0.0,0.0,73,0.00,,,0.00,VWS V14.01,2013-03-02 04:03:00,
2013-03-01 23:08:00,25.7,18.3,30.13,NE,37,0.0,0.0,73,0.00,,,0.00,VWS V14.01,2013-03-02 04:08:00,
2013-03-01 23:13:00,25.7,18.3,30.13,NE,37,0.0,0.0,73,0.00,,,0.00,VWS V14.01,2013-03-02 04:13:00,
2013-03-01 23:18:00,25.7,18.3,30.13,NE,37,0.0,0.0,73,0.00,,,0.00,VWS V14.01,2013-03-02 04:18:00,
2013-03-01 23:24:00,25.7,18.3,30.13,NE,37,0.0,0.0,73,0.00,,,0.00,VWS V14.01,2013-03-02 04:24:00,
2013-03-01 23:29:00,25.7,18.6,30.13,North,353,0.0,0.0,74,0.00,,,0.00,VWS V14.01,2013-03-02 04:29:00,
2013-03-01 23:34:00,25.7,18.6,30.13,North,353,0.0,0.0,74,0.00,,,0.00,VWS V14.01,2013-03-02 04:34:00,
2013-03-01 23:39:00,25.9,18.8,30.13,North,353,4.0,6.7,74,0.00,,,0.00,VWS V14.01,2013-03-02 04:39:00,
2013-03-01 23:44:00,25.7,18.6,30.13,North,353,0.0,0.0,74,0.00,,,0.00,VWS V14.01,2013-03-02 04:44:00,
2013-03-01 23:51:00,25.7,18.6,30.13,North,353,0.0,0.0,74,0.00,,,0.00,VWS V14.01,2013-03-02 04:51:00,
2013-03-01 23:56:00,25.7,18.6,30.13,North,353,0.0,0.0,74,0.00,,,0.00,VWS V14.01,2013-03-02 04:56:00,